Location: Middelsbur
(53.6609°N, 7.5020°E)
Time: 13:18:06
(UTC+00:00)

Cosmos 1408 Rocket - Pass Details

Date: 06 July 2020
Orbit: 601 x 630 km, 82.6° (Epoch: 06 August)

Event Time Altitude Azimuth Distance (km) Brightness Sun altitude
Exits shadow 23:52:07 18° 215° (SW) 1,543 5.1 -13.7°
Maximum altitude 23:55:15 51° 286° (WNW) 790 4.1 -13.7°
Drops below altitude 10° 23:59:35 10° 3° (N) 2,008 7.7 -13.6°
Sets 00:01:54 0° 9° (N) 2,924 9.1 -13.6°
